Location: Paris
(48.6709°N, 2.3750°E)
Time: 16:16:55
(UTC+02:00)

LO-87 - Pass Details

Date: 28 June 2022
Orbit: 451 x 466 km, 97.4° (Epoch: 08 August)

Event Time Altitude Azimuth Distance (km) Brightness Sun altitude
Exits shadow 02:02:22 25° 249° (WSW) 974 ? -18.0°
Maximum altitude 02:02:54 26° 265° (W) 947 ? -18.0°
Drops below altitude 10° 02:05:52 10° 323° (NW) 1,618 ? -18.0°
Sets 02:08:10 0° 337° (NNW) 2,503 ? -18.0°
